#timestamp,LO_Frequency,Hit 
1501927215.9,286046991.3,N
1501927235.7,286046988.2,N
1501927255.5,286046989.9,N
1501927275.4,286046988.8,N
1501927295.2,286046991.3,N
1501927315.0,286046987.3,N
1501927315.9,286046987.3,N
1501927335.8,286046986.5,N
1501927355.6,286046983.5,P
1501927375.4,286046992.0,N
1501927395.3,286046992.1,N
1501927415.1,286046991.0,N
1501927435.8,286046987.0,P
1501927455.7,286047001.7,N
1501927475.5,286047006.1,N
1501927495.3,286047007.9,N
1501927515.2,286047010.7,N
1501927535.9,286047013.7,N
1501927555.7,286047011.3,N
1501927575.6,286047010.1,N
1501927595.4,286047010.3,N
1501927615.2,286047004.7,N
1501927635.1,286047001.3,N
1501927636.0,286047001.3,N
1501927655.8,286047002.8,N
1501927675.6,286047003.9,N
1501927695.5,286047003.9,N
1501927715.3,286046998.7,N
1501927735.1,286047000.8,N
1501927755.8,286047001.2,N
1501927775.7,286047000.6,N
1501927795.5,286047004.1,N
1501927815.3,286047000.1,N
1501927835.2,286046998.7,N
1501927855.9,286046998.8,N
1501927875.7,286046995.4,N
1501927895.6,286046994.8,N
1501927915.4,286046992.1,N
1501927935.2,286046993.9,N
1501927955.1,286046992.3,N
1501927956.0,286046992.3,N
1501927975.8,286046991.1,N
1501927995.6,286046992.7,N
1501928015.5,286046990.4,N
1501928035.3,286046987.1,N
1501928055.1,286046985.0,N
1501928075.9,286046985.0,N
1501928095.7,286046985.3,N
1501928115.5,286046987.8,N
1501928135.4,286046991.2,N
1501928155.2,286046991.3,N
1501928175.0,286046989.3,N
1501928175.9,286046989.3,N
1501928195.8,286046987.7,N
1501928215.6,286046984.0,N
1501928235.4,286046982.3,N
1501928255.2,286046984.5,N
1501928275.1,286046984.2,N
1501928276.0,286046984.2,N
1501928295.8,286046987.8,N
1501928315.6,286046991.1,N
1501928335.5,286046990.8,N
1501928355.3,286046990.7,N
1501928375.1,286046989.4,N
1501928395.9,286046986.6,P
1501928415.7,286046997.4,N
1501928435.5,286047004.1,N
1501928455.4,286047006.4,N
1501928475.2,286047008.3,N
1501928495.0,286047009.8,N
1501928495.9,286047009.8,N
1501928515.8,286047006.6,N
1501928535.6,286047003.0,N
1501928555.4,286047001.5,N
1501928575.3,286046999.9,N
1501928595.1,286046998.4,N
1501928596.0,286046998.4,N
1501928615.8,286046997.0,N
1501928635.7,286046994.6,N
1501928655.5,286046992.4,N
1501928675.3,286046989.2,N
1501928695.2,286046987.9,N
1501928715.9,286046985.4,N
1501928735.7,286046988.4,N
1501928755.5,286046989.9,N
1501928775.4,286046985.3,N
1501928795.2,286046988.2,N
1501928815.0,286046986.2,N
1501928815.9,286046986.2,N
1501928835.8,286046984.6,N
1501928855.6,286046983.0,N
1501928875.4,286046984.8,N
1501928895.3,286046983.8,N
1501928915.1,286046985.2,N
1501928935.8,286046981.3,N
1501928955.7,286046979.7,N
1501928975.5,286046978.7,N
1501928995.3,286046978.4,N
1501929015.2,286046979.0,N
1501929035.9,286046982.3,N
1501929055.7,286046985.3,N
1501929075.6,286046992.0,N
1501929095.4,286046993.4,N
1501929115.2,286047001.1,N
1501929135.0,286047000.6,N
1501929136.0,286047000.6,N
1501929155.8,286047002.2,N
1501929175.6,286047002.2,N
1501929195.4,286047003.0,N
1501929215.3,286047004.5,N
1501929235.1,286047010.4,N
1501929255.8,286047010.0,N
1501929275.7,286047010.9,N
1501929295.5,286047012.8,N
1501929315.3,286047013.1,N
1501929335.2,286047013.3,N
1501929355.9,286047015.5,N
1501929375.7,286047013.7,N
1501929395.6,286047013.8,N
1501929415.4,286047009.9,N
1501929435.2,286047012.0,N
1501929455.1,286047012.4,N
1501929456.0,286047012.4,N
1501929475.8,286047012.6,N
1501929495.6,286047016.5,N
1501929515.5,286047010.9,N
1501929535.3,286047009.7,N
1501929555.1,286047006.1,N
1501929575.8,286047003.8,N
1501929595.7,286047000.0,N
1501929615.5,286046999.6,N
1501929635.3,286046999.5,N
1501929655.2,286046996.6,N
1501929675.0,286047000.9,N
1501929675.9,286047000.9,N
1501929695.7,286047001.0,N
1501929715.6,286046996.7,N
1501929735.4,286046999.6,N
1501929755.2,286047000.3,N
1501929775.1,286047001.7,N
1501929776.0,286047001.7,N
1501929795.8,286047004.8,N
1501929815.6,286047006.7,N
1501929835.5,286047008.5,N
1501929855.3,286047013.3,N
1501929875.1,286047018.0,N
1501929895.9,286047018.1,N
1501929915.7,286047021.5,P
1501929935.5,286047020.2,N
1501929955.4,286047021.8,P
1501929975.2,286047020.6,P
1501929995.0,286047003.0,N
1501929995.9,286047003.0,N
1501930015.8,286047001.8,N
1501930035.6,286047001.2,N
1501930055.4,286046997.7,N
1501930075.3,286046992.5,N
1501930095.1,286046989.3,N
1501930096.0,286046989.3,N
1501930115.8,286046985.4,N
1501930135.7,286046986.8,N
1501930155.5,286046979.1,N
1501930175.3,286046979.5,N
1501930195.2,286046977.5,N
1501930215.9,286046976.3,N
1501930235.7,286046975.5,N
1501930255.6,286046969.3,N
1501930275.4,286046969.3,N
1501930295.2,286046972.0,N
1501930315.0,286046968.1,N
1501930315.9,286046968.1,N
1501930335.8,286046966.9,N
1501930355.6,286046966.1,N
1501930375.4,286046964.7,N
1501930395.3,286046968.7,N
1501930415.1,286046966.6,N
1501930416.0,286046966.6,N
1501930435.8,286046964.9,N
1501930455.7,286046961.7,N
1501930475.5,286046962.1,N
1501930495.3,286046958.2,N
1501930515.2,286046956.6,P
1501930535.9,286046979.5,N
1501930555.7,286046981.0,N
1501930575.6,286046980.7,N
1501930595.4,286046981.2,N
1501930615.2,286046979.2,N
1501930635.1,286046977.8,N
1501930636.0,286046977.8,N
1501930655.8,286046976.7,P
1501930675.6,286046998.4,P
1501930695.5,286046998.9,N
1501930715.3,286047000.2,N
1501930735.1,286047000.5,N
1501930755.9,286047001.0,N
1501930775.7,286046996.5,N
1501930795.5,286046998.5,N
